Location: La Junie
(44.7428°N, 2.1773°E)
Time: 12:04:41
(UTC+00:00)

NOSS 3-4 (C) - Pass Details

Date: 15 May 2026
Orbit: 773 x 1438 km, 63.4° (Epoch: 26 December)

Event Time Altitude Azimuth Distance (km) Brightness Sun altitude
Rises 20:40:55 0° 323° (NW) 3,673 8.4 -13.4°
Reaches altitude 10° 20:43:24 10° 328° (NNW) 2,810 7.3 -13.7°
Maximum altitude 20:49:59 55° 46° (NE) 1,352 4.2 -14.5°
Enters shadow 20:55:45 18° 119° (ESE) 2,637 5.2 -15.2°
